Tracking 25620 objects as of 18-May-2022
HD Live streaming from Space Station
objects crossing your sky now

COSMOS 2251 DEB

Track COSMOS 2251 DEB now!
10-day predictions


NORAD ID: 37547
Int'l Code: 1993-036BPC
Perigee: 667.6 km
Apogee: 708.6 km
Inclination: 74.0 °
Period: 98.4 minutes
Semi major axis: 7059 km
RCS: 0.008 m2 (small)
Launch date: June 16, 1993
Source: Commonwealth of Independent States (former USSR) (CIS)
Launch site: PLESETSK MISSILE AND SPACE COMPLEX (PKMTR)

Note: This is SATELLITE DEBRIS
aabbcc
Your satellite tracking list
Your tracking list is empty




NASA's NSSDC Master Catalog

Two Line Element Set (TLE):
1 37547U 93036BPC 22137.52014413  .00008370  00000-0  15983-2 0  9998
2 37547  74.0374 228.9944 0029019 333.9811  25.9896 14.63801243472273
Source of the keplerian elements: AFSPC